www.pogodaiklimat.ru

Погода и климат >> Архив погоды >> Хорватия >> Split-Marjan


ПОГОДА в Split-Marjan

  • Прогноз погоды в Split-Marjan
  • Монитор погоды в Split-Marjan
  • Климат города

АРХИВ ПОГОДЫ в Split-Marjan

Время (UTC), дата Ветер
(напр.,м/с)
 
Видим.   Явления Облачность Т
(С)
Тd
(С)
f
(%)
Тe
(С)
Тes
(С)
Комфортность P
(гПа)
Po
(гПа)
Тmin
(С)
Tmax
(С)
R
(мм)
R24
(мм)
S
(см)
05 15.10 СВ 4 25 км 8/6 1000 м
[St Ci sp]
+18.4 +8.1 51 +19 +19 1018.0 1002.9
04 15.10 СВ 4 20 км 8/8 1000 м
[Sc]
+18.5 +8.3 51 +19 +19 1018.2 1003.1
06 15.10 В 4 30 км 9/3 1230 м
[Sc Ac trans Ci sp]
+18.7 +8.1 50 +19 +19 1018.3 1003.2 +18.1
07 15.10 В 2 30 км 9/5 1500 м
[Sc Ac trans Ci sp]
+19.0 +8.3 50 +20 +21 1018.8 1003.7
08 15.10 В 1 30 км 9/3 1500 м
[Sc Ac trans]
+20.1 +9.0 49 +22 +24 комфорт 1018.9 1003.9
09 15.10 В 1 35 км 9/0
[Ac As]
+21.3 +9.3 46 +23 +25 комфорт 1018.9 1004.0
11 15.10 ЮЗ 1 35 км 9/0
[Ac As Ci sp]
+22.6 +10.6 47 +25 +28 комфорт 1018.9 1004.0
10 15.10 ЮЗ 1 35 км 9/0
[Ac As Ci sp]
+22.2 +10.7 48 +24 +28 комфорт 1019.2 1004.3
12 15.10 ЮЗ 1 35 км 9/0
[Cs]
+23.5 +8.5 38 +24 +31 комфорт 1018.3 1003.5
13 15.10 ЮЗ 2 35 км 9/0
[Cs]
+23.2 +8.1 38 +24 +29 комфорт 1018.2 1003.4
14 15.10 ЮЗ 1 40 км 9/0
[Ac As Ci sp]
+22.7 +8.5 40 +24 +25 комфорт 1018.3 1003.4
15 15.10 штиль 0 40 км 9/0
[Ac As Ci sp]
+21.8 +8.7 43 +23 +24 комфорт 1018.3 1003.4
18 15.10 штиль 0 20 км 9/0
[Ac As]
+21.0 +8.7 45 +22 +22 комфорт 1019.0 1004.0 +23.5
20 15.10 В 1 20 км 9/0
[Ac As]
+20.7 +9.0 47 +23 +23 комфорт 1019.2 1004.2
19 15.10 С 1 20 км 9/3 1500 м
[Sc Ac As]
+20.5 +8.7 47 +23 +23 комфорт 1019.1 1004.1
21 15.10 ЮВ 1 20 км 10/4 1500 м
[Sc As op]
+20.2 +10.2 53 +23 +23 комфорт 1019.4 1004.4
00 16.10 СВ 1 20 км 9/0
[Ac As]
+19.2 +12.4 65 +21 +21 комфорт 1019.6 1004.6
03 16.10 СВ 2 20 км 6/0
[Ac trans Ci sp]
+18.8 +8.7 52 +20 +20 1019.4 1004.3
04 16.10 В 4 20 км 4/0
[Ac trans]
+18.2 +8.5 53 +18 +18 1019.5 1004.4
05 16.10 ЮВ 2 30 км 4/1 1000 м
[Cu hum Ac trans Ci fib]
+18.2 +9.4 56 +19 +19 1019.6 1004.5
06 16.10 В 2 30 км 8/0
[Ac lent Ci sp]
+18.4 +8.6 53 +19 +19 1019.7 1004.6 +18.0
08 16.10 СВ 1 30 км 8/0
[Ac trans Cs]
+20.2 +10.0 52 +23 +26 комфорт 1020.2 1005.2
07 16.10 В 1 30 км 9/0
[Ac trans Cs]
+19.4 +9.8 54 +21 +23 комфорт 1020.2 1005.2
09 16.10 СВ 1 30 км 8/0
[Cs]
+22.0 +10.9 49 +24 +29 комфорт 1020.2 1005.3
10 16.10 ЮЗ 3 30 км 8/0
[Ac trans Cs]
+22.4 +13.9 59 +26 +30 жарко 1020.4 1005.5
11 16.10 ЮЗ 1 30 км 8/1 1000 м
[Cu hum Cs]
+23.0 +10.1 44 +25 +32 комфорт 1020.1 1005.2
12 16.10 ЮЗ 3 30 км 8/1 1230 м
[Cu hum Cs]
+23.8 +10.3 42 +25 +29 комфорт 1019.6 1004.8
14 16.10 ЮЗ 2 30 км 8/1 1000 м
[Cu med, cong Cs]
+23.9 +10.8 44 +25 +27 комфорт 1019.3 1004.5
13 16.10 ЮЗ 2 30 км 8/1 1000 м
[Cu med, cong Cs]
+24.0 +10.6 43 +25 +29 комфорт 1019.6 1004.8
15 16.10 ЮЗ 2 30 км 8/1 1230 м
[Cu med, cong Cs]
+23.4 +11.2 46 +26 +26 жарко 1019.1 1004.3
18 16.10 СЗ 2 20 км 9/0
[Cs]
+21.4 +10.3 49 +23 +23 комфорт 1019.7 1004.8 +24.1
19 16.10 З 1 20 км 6/0
[Ac trans Ci sp]
+21.0 +11.0 53 +24 +24 комфорт 1019.8 1004.8
20 16.10 штиль 0 20 км 8/0
[Ci sp]
+20.7 +11.1 54 +22 +22 комфорт 1019.7 1004.7
21 16.10 штиль 0 20 км 6/0
[Ci sp]
+20.2 +11.8 58 +22 +22 комфорт 1019.6 1004.6
00 17.10 ЮВ 2 20 км 1/0
[Ci fib]
+18.8 +13.4 71 +20 +20 1019.3 1004.3
03 17.10 В 4 20 км ясно +18.2 +9.8 58 +18 +18 1018.6 1003.5
05 17.10 СВ 4 25 км 3/0
[Ac trans]
+17.7 +9.6 59 +17 +17 1018.6 1003.5
04 17.10 СВ 3 20 км 1/0
[Ci fib]
+17.8 +9.7 59 +18 +18 1018.6 1003.5
06 17.10 СВ 3 35 км 5/0
[Ac trans Ci fib]
+17.9 +9.4 58 +18 +18 1018.8 1003.7 +17.3
07 17.10 СВ 4 35 км 8/3 1000 м
[Sc Ac trans Ci fib]
+17.9 +9.2 57 +18 +18 1018.6 1003.5
08 17.10 ЮВ 1 35 км 8/3 1000 м
[Sc Ac trans]
+20.1 +11.5 58 +23 +24 комфорт 1018.6 1003.6
09 17.10 С 1 35 км 8/3 1000 м
[Sc Ac trans]
+20.4 +12.6 61 +24 +26 комфорт 1018.6 1003.6
11 17.10 ЮЗ 2 35 км 3/0
[Ac trans Ci sp]
+23.0 +13.1 54 +26 +32 жарко 1017.6 1002.8
10 17.10 ЮЗ 1 35 км 3/0
[Ac trans Ci sp]
+21.6 +12.4 56 +24 +31 комфорт 1018.0 1003.1
12 17.10 ЮЗ 3 35 км 3/0
[Ac trans]
+23.6 +10.7 44 +25 +29 комфорт 1017.1 1002.3
13 17.10 ЮЗ 2 35 км 1/0
[Ac trans]
+23.8 +10.3 42 +25 +30 комфорт 1016.6 1001.8
15 17.10 ЮЗ 1 35 км 3/0
[Ac trans Ci sp]
+23.1 +10.4 45 +25 +26 комфорт 1016.1 1001.3
18 17.10 ЮЗ 2 20 км ясно +20.4 +10.5 53 +23 +23 комфорт 1016.0 1001.1 +23.8
19 17.10 СВ 1 20 км ясно +19.0 +10.6 58 +21 +21 комфорт 1016.0 1001.0
20 17.10 Ю 1 20 км ясно +19.6 +11.1 58 +22 +22 комфорт 1016.2 1001.2
21 17.10 Ю 2 20 км ясно +19.4 +15.3 77 +22 +22 комфорт 1016.6 1001.6
00 18.10 В 3 20 км ясно +18.3 +9.7 57 +19 +19 1015.9 1000.9
03 18.10 СВ 3 20 км ясно +17.4 +8.4 55 +17 +17 1015.0 999.9
04 18.10 СВ 4 20 км ясно +17.4 +8.4 55 +17 +17 1014.9 999.8
05 18.10 СВ 5 25 км 3/0
[Ci fib]
+17.5 +8.5 55 +17 +17 1014.9 999.8
06 18.10 СВ 4 30 км 4/0
[Ci fib]
+17.7 +9.0 57 +17 +18 1015.1 1000.0 +17.1
07 18.10 СВ 2 15 км 5/0
[Ci fib]
+18.3 +9.9 58 +19 +20 1015.6 1000.6
08 18.10 СВ 3 10 км 5/0
[Ci sp]
+19.2 +9.8 54 +20 +23 1015.8 1000.8
09 18.10 Ю 1 15 км 6/0
[Ci sp]
+20.5 +10.8 54 +23 +29 комфорт 1015.8 1000.9
10 18.10 ЮЗ 1 18 км 6/0
[Ci sp]
+21.4 +11.1 52 +23 +30 комфорт 1015.7 1000.8
11 18.10 штиль 0 20 км 8/0
[Cs]
+21.8 +11.8 53 +24 +32 комфорт 1014.8 1000.0
12 18.10 штиль 0 20 км 8/0
[Cs]
+22.2 +11.9 52 +25 +32 комфорт 1014.3 999.5
13 18.10 З 1 30 км 8/0
[Ci sp]
+22.9 +10.8 46 +25 +30 комфорт 1014.2 999.4
14 18.10 ЮЗ 1 30 км 6/0
[Ci sp]
+22.5 +12.1 52 +25 +28 комфорт 1014.1 999.3
15 18.10 СЗ 2 30 км 8/0
[Ci sp]
+21.8 +10.4 48 +24 +24 комфорт 1013.9 999.1
18 18.10 штиль 0 20 км 3/0
[Ci sp]
+20.4 +11.5 57 +22 +22 комфорт 1014.4 999.5 +23.0
19 18.10 З 1 20 км 6/0
[Ci sp]
+21.0 +12.8 59 +25 +25 комфорт 1014.6 999.7
20 18.10 СВ 1 20 км 3/0
[Ci sp]
+20.2 +11.6 58 +23 +23 комфорт 1014.7 999.8
21 18.10 ЮЗ 1 20 км 3/0
[Ci sp]
+20.0 +13.8 67 +23 +23 комфорт 1015.1 1000.2
00 19.10 В 3 20 км 3/0
[Ci sp]
+18.8 +9.5 55 +20 +20 1015.0 1000.0
03 19.10 СВ 4 20 км 3/0
[Ci sp]
+18.0 +8.9 55 +18 +18 1014.0 999.0
04 19.10 В 4 16 км ясно +18.3 +9.1 55 +18 +18 1015.0 1000.0
05 19.10 СВ 3 18 км 3/0
[Ci sp]
+17.3 +10.1 63 +17 +17 1015.2 1000.1
06 19.10 СВ 4 20 км 3/0
[Ci sp]
+17.1 +9.1 59 +17 +17 1015.5 1000.4 +17.0
07 19.10 СВ 2 15 км 1/0
[Ci fib]
+18.6 +9.5 55 +20 +21 1016.1 1001.1
08 19.10 Ю 2 12 км 1/0
[Ci fib]
+19.7 +12.6 64 +22 +25 комфорт 1016.5 1001.5
09 19.10 Ю 1 12 км 1/0
[Ci fib]
+21.0 +12.2 57 +24 +30 комфорт 1016.7 1001.8
10 19.10 Ю 2 12 км 1/0
[Ci sp]
+22.1 +10.8 49 +24 +31 комфорт 1016.9 1002.0
11 19.10 ЮЗ 2 15 км 1/0
[Ac trans]
+22.8 +10.9 47 +25 +32 комфорт 1016.5 1001.7
12 19.10 ЮЗ 2 15 км 1/1 1230 м
[Cu hum]
+23.2 +10.1 43 +25 +31 комфорт 1016.1 1001.3
13 19.10 ЮЗ 2 20 км 1/1 1000 м
[Cu hum]
+23.6 +12.7 50 +26 +30 жарко 1015.6 1000.8
14 19.10 ЮЗ 2 20 км 1/0
[Ac trans Ci sp]
+23.2 +13.6 55 +27 +29 душно 1015.5 1000.7
15 19.10 ЮЗ 2 20 км 1/0
[Ac trans]
+22.4 +14.3 60 +26 +27 жарко 1015.4 1000.6
18 19.10 ЮВ 2 20 км ясно +20.1 +15.3 74 +23 +23 комфорт 1016.5 1001.6 +23.7
19 19.10 СЗ 2 20 км ясно +20.1 +14.3 69 +23 +23 комфорт 1016.8 1001.9
20 19.10 С 1 20 км ясно +20.0 +13.1 64 +23 +23 комфорт 1017.2 1002.2
21 19.10 В 3 20 км ясно +20.0 +12.0 60 +22 +22 комфорт 1017.5 1002.5
00 20.10 СВ 8 20 км ясно +19.4 +8.6 50 +20 +20 1017.9 1002.9
03 20.10 СВ 7 20 км ясно +18.6 +8.0 50 +18 +18 1018.2 1003.1
04 20.10 СВ 8 20 км ясно +18.8 +7.8 49 +18 +18 1018.6 1003.5
05 20.10 СВ 9
{17}
15 км ясно +18.2 +7.4 49 +17 +17 1018.9 1003.8
06 20.10 СВ 8
{17}
10 км 1/0
[Ci fib]
+18.0 +6.9 48 +17 +17 1019.3 1004.2 +18.0
07 20.10 СВ 8 10 км ясно +18.6 +7.0 47 +18 +18 1020.0 1004.9
08 20.10 СВ 7 10 км 1/0
[Ci fib]
+19.8 +8.0 46 +20 +21 1020.3 1005.3
09 20.10 СВ 5 10 км 3/0
[Ci fib]
+20.9 +7.9 43 +22 +25 комфорт 1020.5 1005.5
10 20.10 СВ 4 20 км 3/0
[Ci fib]
+21.8 +7.5 40 +23 +27 комфорт 1020.5 1005.6
11 20.10 СВ 3 20 км 3/0
[Ci fib]
+22.4 +7.6 39 +23 +29 комфорт 1020.2 1005.3
12 20.10 ЮЗ 3 20 км 3/0
[Ci sp]
+22.9 +8.6 40 +24 +29 комфорт 1020.0 1005.1
13 20.10 ЮЗ 4 20 км 8/0
[Ci sp]
+23.0 +8.7 40 +24 +27 комфорт 1019.6 1004.7
14 20.10 З 3 20 км 6/0
[Ci sp]
+23.1 +8.9 40 +24 +26 комфорт 1019.1 1004.3
15 20.10 З 3 25 км 6/3 1230 м
[Cu hum Ci sp]
+22.8 +8.7 41 +24 +25 комфорт 1019.1 1004.2
18 20.10 СВ 7 20 км ясно +20.2 +7.8 45 +21 +21 комфорт 1019.5 1004.5 +23.3
19 20.10 СВ 8 20 км ясно +19.6 +7.7 46 +20 +20 1019.8 1004.8
20 20.10 СВ 9 20 км ясно +19.1 +7.5 47 +19 +19 1020.5 1005.4
21 20.10 СВ 10 20 км 3/0
[Ci fib]
+18.7 +7.2 47 +18 +18 1020.6 1005.5
00 21.10 СВ 9 20 км 1/0
[Ac trans Ci fib]
+17.9 +6.3 47 +17 +17 1019.6 1004.5
03 21.10 СВ 7 20 км 8/0
[Ac As]
+17.0 +5.6 47 +16 +16 1018.8 1003.6
04 21.10 СВ 8 20 км 8/0
[Ac As]
+16.8 +4.8 45 +16 +16 1018.6 1003.4
05 21.10 СВ 9 20 км 8/1 1500 м
[Sc Ac As Ci sp]
+16.6 +4.3 44 +15 +15 1018.2 1003.0
06 21.10 СВ 9 25 км 9/1 1500 м
[Sc Ac As]
+16.6 +4.3 44 +15 +15 1018.5 1003.3 +16.4
07 21.10 СВ 10 25 км 9/3 1500 м
[Sc Ac As]
+17.0 +5.8 48 +15 +15 1018.7 1003.5
08 21.10 В 5 25 км 10/3 1500 м
[Sc Ac As]
+17.2 +6.1 48 +17 +17 1018.8 1003.6
09 21.10 СВ 13
{22}
25 км 8/3 1500 м
[Sc Ac As]
+16.8 +5.8 48 +15 +15 1018.5 1003.3
10 21.10 СВ 13
{22}
20 км 9/3 1500 м
[Sc Ac As]
+16.3 +4.6 46 +14 +14 1018.4 1003.2
11 21.10 СВ 13
{20}
20 км 10/6 1000 м
[Sc As op]
+16.4 +4.0 44 +14 +14 1018.0 1002.8
12 21.10 СВ 11-19
{24}
20 км 10/8 1230 м
[Sc As op]
+16.0 +3.7 44 +14 +14 1017.8 1002.6
13 21.10 СВ 9
{21}
25 км 10/6 1000 м
[Sc As op]
+15.5 +4.0 46 +14 +14 1018.1 1002.9
14 21.10 СВ 9
{18}
25 км 10/8 1000 м
[Sc As op]
+15.3 +2.9 43 +13 +13 1018.1 1002.8
15 21.10 СВ 10
{18}
25 км 9/6 1230 м
[Sc As op]
+15.4 +2.3 41 +13 +13 1017.5 1002.3
18 21.10 З 3 20 км 3/0
[Ac trans Ci sp]
+25.0 +18.9 69 +30 +30 душно 1015.1 1000.5 +29.2
19 21.10 СВ 10 20 км 8/8 1000 м
[Sc]
+13.6 +0.1 40 +11 +11 1017.9 1002.6
20 21.10 СВ 11 20 км 8/8 1000 м
[Sc]
+13.5 +0.2 40 +11 +11 1018.0 1002.6
21 21.10 СВ 10-17
{20}
20 км 6/6 1230 м
[Sc]
+13.4 +0.1 40 +11 +11 1018.1 1002.7
00 22.10 СВ 12 20 км 9/9 1230 м
[Sc]
+13.2 -0.2 40 +10 +10 1017.0 1001.6
03 22.10 СВ 11-18
{21}
20 км 3/3 1230 м
[Sc]
+13.1 +1.4 45 +10 +10 1015.5 1000.2
04 22.10 СВ 12 20 км 3/3 1000 м
[Sc]
+13.1 +1.4 45 +10 +10 1015.7 1000.4

 

Местоположение метеостанции Split-Marjan (Хорватия): широта 43.52 долгота 16.43 высота над уровнем моря 128 м.

В архиве по умолчанию представлена погода в Split-Marjan за последнюю неделю. Архивные данные за месяц целиком и за предыдущие месяцы, начиная с января 2011 года, Вы можете получить, выбрав интересующий диапазон дат из раскрывающегося списка и нажав кнопку "Ввод!".


*Определитесь, кто Вы:
робот инопланетянин человек

Внимание! Время в таблицах - всемирное. Для получения местного времени необходимо прибавить поправку, которая в Split-Marjan равна 1 ч.

Смотрите также архив погоды в соседних городах и на ближайших метеорологических станциях:

Погода в Split-Resnik (Хорватия) (11 км)
Погода в Hvar (Хорватия) (39 км)
Погода в Sibenik (Хорватия) (47 км)
Погода в Makarska (Хорватия) (55 км)
Погода в Livno (Босния и Герцеговина) (59 км)
Погода в Komiza (Хорватия) (59 км)
Погода в Lastovo (Хорватия) (92 км)
Погода в Ploce (Хорватия) (98 км)
Погода в Bugojno (Босния и Герцеговина) (104 км)
Погода в Zadar Zemunik (Хорватия) (108 км)

Пояснения к столбцам:

Ветер - указаны скорость ветра в м/с - средняя за 10 мин, порывы в срок и между сроками (в фигурных скобках) и направление, откуда дует ветер: С - северный, СВ - северо-восточный, В - восточный, ЮВ - юго-восточный, Ю - южный, ЮЗ - юго-западный, З - западный, СЗ - северо-западный.
Видимость - горизонтальная дальность видимости в метрах или километрах. При видимости от 1 до 10 км при отсутствии осадков обычно наблюдается дымка, при ухудшении видимости до 1 км и менее - туман. В сухую погоду видимость может ухудшаться дымом, пылью или мглою.
Явления - указаны атмосферные явления, наблюдавшиеся в срок или в последний час перед сроком; фигурными скобками обозначены явления, наблюдавшиеся между сроками (за 1-3 часа до срока); квадратными скобками обозначены град или гололедные отложения с указанием их диаметра в мм.
Облачность - указаны через наклонную черту общая и нижняя облачность в баллах и высота нижней границы облаков в метрах; квадратными скобками обозначены формы облаков: Ci - перистые, Cs - перисто-слоистые, Cc - перисто-кучевые, Ac - высококучевые, As - высокослоистые, Sc - слоисто-кучевые, Ns - слоисто-дождевые, Cu - кучевые, Cb - кучево-дождевые. Подробнее классификацию облаков см. в Атласе облаков (PDF).
T - Температура воздуха - температура, измеренная на высоте 2 м над землей.
Td - Температура точки росы - температура, при понижении до которой содержащийся в воздухе водяной пар достигнет насыщения.
f - Относительная влажность воздуха - влажноcть воздуха, измеренная на высоте 2 м над землей.
Te - Эффективная температура - температура, которую ощущает одетый по сезону человек в тени. Характеристика душности погоды. При расчете учитывается влияние влажности воздуха и скорости ветра на теплоощущения человека.
Tes - Эффективная температура на солнце - температура, которую ощущает человек, с поправкой на солнечный нагрев. Характеристика знойности погоды. Зависит от высоты солнца над горизонтом, облачности и скорости ветра. Ночью, в пасмурную погоду, а также при ветре 12 м/с и более поправка равна нулю.
P - Атмосферное давление - приведенное к уровню моря атмосферное давление.
Po - Атмосферное давление - измеренное на уровне метеостанции атмосферное давление.
Tmin - Минимальная температура - минимум температуры воздуха на высоте 2 м над землей.
Tmax - Максимальная температура - максимум температуры воздуха на высоте 2 м над землей.
R - Количество осадков - Количество выпавших осадков за период времени, мм. При наведении курсора мыши на число - период времени, за который выпало указанное количество осадков.
R24 - Количество осадков - Количество выпавших осадков за 24 часа, мм.
S - Снежный покров - Высота снежного покрова, см. При наведении курсора мыши на число - состояние снежного покрова и степень покрытия местности в баллах.